Weather History for Port Angeles, WA

Change the Weather History Date:

Wednesday, January 8, 2014

  Actual Average Record
Temperature  
Mean Temperature 42 °F -  
Max Temperature 46 °F 44 °F 64 °F (1986)
Min Temperature 39 °F 33 °F 15 °F (1973)
Degree Days  
Heating Degree Days 22    
Moisture  
Dew Point 40 °F    
Average Humidity 93    
Maximum Humidity 100    
Minimum Humidity 63    
Precipitation  
Precipitation 0.15 in - - ()
Sea Level Pressure  
Sea Level Pressure 29.80 in    
Wind  
Wind Speed 3 mph (SW)    
Max Wind Speed 20 mph    
Max Gust Speed 30 mph    
Visibility 3 miles    
Events Fog , Rain    
Averages and records for this station are not official NWS values.
T = Trace of Precipitation, MM = Missing Value Source: NWS Daily Summary

Daily Weather History Graph

Daily Weather History Graph

Search for Another Location

Airport:

Trip Planner

Search our weather history database for the weather conditions in past years. The results will help you decide how hot, cold, wet, or windy it might be!

Date:

Astronomy

Jan. 08, 2014 Rise Set
Actual Time 8:02 AM PST 4:38 PM PST
Civil Twilight 7:27 AM PST 5:14 PM PST
Nautical Twilight 6:47 AM PST 5:53 PM PST
Astronomical Twilight 6:10 AM PST 6:31 PM PST
Moon 11:49 AM PST (1/8) 12:58 AM PST (1/8)
Length of Visible Light 9h 47m
Length of Day
8h 36m
First Quarter, 57% of the Moon is Illuminated
Jan 8
First Quarter
Jan 15
Full
Jan 23
Last Quarter
Jan 30
New
Feb 6
First Quarter

Hourly Weather History & Observations

Time (PST) Temp. Windchill Dew Point Humidity Pressure Visibility Wind Dir Wind Speed Gust Speed Precip Events Conditions
12:20 AM 39.9 °F 37.8 °F 39.0 °F 97% 29.96 in 0.5 mi SSE 3.5 mph - N/A Fog Fog
12:31 AM 41.0 °F - 39.9 °F 96% 29.97 in 0.2 mi Calm Calm - N/A Fog Fog
12:49 AM 39.2 °F - 37.4 °F 93% 29.97 in 0.2 mi Calm Calm - N/A Fog Fog
12:53 AM 39.9 °F - 39.0 °F 97% 29.98 in 0.2 mi Calm Calm - N/A Fog Fog
1:00 AM 39.9 °F 36.7 °F 37.9 °F 93% 29.97 in 0.5 mi South 4.6 mph - N/A Fog Fog
1:12 AM 39.9 °F - 39.0 °F 97% 29.97 in 2.0 mi Calm Calm - N/A   Overcast
1:25 AM 39.9 °F - 39.0 °F 97% 29.96 in 1.0 mi Calm Calm - N/A   Overcast
1:39 AM 39.9 °F 35.8 °F 37.9 °F 93% 29.96 in 3.0 mi SE 5.8 mph - N/A   Overcast
1:51 AM 39.2 °F - 39.2 °F 100% 29.96 in 7.0 mi Calm Calm - N/A   Overcast
1:53 AM 39.9 °F - 39.9 °F 100% 29.97 in 6.0 mi Calm Calm - N/A   Overcast
2:22 AM 39.9 °F - 39.0 °F 97% 29.96 in 4.0 mi Calm Calm - N/A   Overcast
2:53 AM 39.9 °F - 39.0 °F 97% 29.96 in 3.0 mi Calm Calm - 0.00 in Rain Light Rain
3:25 AM 39.9 °F 37.8 °F 39.0 °F 97% 29.95 in 1.8 mi SSW 3.5 mph - 0.00 in   Overcast
3:36 AM 39.9 °F 37.8 °F 39.0 °F 97% 29.95 in 0.5 mi South 3.5 mph - 0.00 in Fog Fog
3:53 AM 39.9 °F - 39.0 °F 97% 29.96 in 0.5 mi Calm Calm - 0.00 in Fog Fog
4:53 AM 39.9 °F - 39.0 °F 97% 29.93 in 0.2 mi Calm Calm - N/A Fog Fog
4:57 AM 39.9 °F - 39.0 °F 97% 29.92 in 0.5 mi Calm Calm - N/A Fog Fog
5:14 AM 39.0 °F 36.8 °F 37.9 °F 96% 29.91 in 1.2 mi SSW 3.5 mph - N/A   Overcast
5:29 AM 39.9 °F 37.8 °F 39.0 °F 97% 29.91 in 0.5 mi SW 3.5 mph - N/A Fog Fog
5:44 AM 39.9 °F 35.8 °F 37.9 °F 93% 29.91 in 1.2 mi SW 5.8 mph - N/A   Overcast
5:53 AM 39.0 °F 34.8 °F 37.9 °F 96% 29.91 in 2.0 mi SW 5.8 mph - N/A   Overcast
6:03 AM 39.9 °F 36.7 °F 37.9 °F 93% 29.89 in 1.0 mi SSW 4.6 mph - N/A   Overcast
6:19 AM 39.9 °F - 37.9 °F 93% 29.88 in 1.8 mi Calm Calm - N/A   Overcast
6:39 AM 39.9 °F 37.8 °F 37.9 °F 93% 29.87 in 2.5 mi SE 3.5 mph - N/A   Overcast
6:46 AM 39.0 °F - 37.9 °F 96% 29.87 in 3.0 mi Calm Calm - N/A   Overcast
6:48 AM 39.2 °F - 37.4 °F 93% 29.87 in 1.5 mi Calm Calm - N/A   Overcast
6:53 AM 39.0 °F - 37.9 °F 96% 29.88 in 0.8 mi Calm Calm - N/A   Overcast
7:03 AM 39.0 °F 35.7 °F 37.9 °F 96% 29.87 in 0.8 mi SW 4.6 mph - N/A   Mist
7:26 AM 39.9 °F 37.8 °F 39.0 °F 97% 29.86 in 0.2 mi SW 3.5 mph - N/A Fog Fog
7:34 AM 39.9 °F - 39.0 °F 97% 29.85 in 0.2 mi Calm Calm - N/A Fog Fog
7:53 AM 39.9 °F - 39.0 °F 97% 29.85 in 0.2 mi Calm Calm - 0.00 in Fog Fog
8:53 AM 39.9 °F 36.7 °F 39.0 °F 97% 29.84 in 0.2 mi SW 4.6 mph - N/A Fog Fog
9:36 AM 41.0 °F 37.1 °F 39.9 °F 96% 29.84 in 0.2 mi WSW 5.8 mph - N/A Fog Fog
9:42 AM 41.0 °F 37.1 °F 39.0 °F 93% 29.84 in 1.2 mi West 5.8 mph - N/A   Overcast
9:44 AM 41.0 °F 37.1 °F 39.0 °F 93% 29.84 in 3.0 mi West 5.8 mph - N/A   Overcast
9:53 AM 41.0 °F 38.0 °F 39.9 °F 96% 29.84 in 4.0 mi SSW 4.6 mph - 0.00 in Rain Light Rain
10:53 AM 45.0 °F - 43.0 °F 93% 29.81 in 4.0 mi Calm Calm - 0.00 in   Overcast
11:22 AM 44.1 °F 41.5 °F 43.0 °F 96% 29.78 in 1.5 mi East 4.6 mph - N/A   Overcast
11:32 AM 44.1 °F 42.5 °F 43.0 °F 96% 29.76 in 4.0 mi East 3.5 mph - N/A   Overcast
11:53 AM 45.0 °F 43.5 °F 43.0 °F 93% 29.75 in 10.0 mi SE 3.5 mph - N/A   Overcast
12:04 PM 46.0 °F 43.9 °F 43.0 °F 89% 29.73 in 10.0 mi SE 4.6 mph - N/A   Overcast
12:53 PM 46.0 °F 43.1 °F 43.0 °F 89% 29.70 in 5.0 mi NNE 5.8 mph - 0.01 in Rain Light Rain
12:57 PM 45.0 °F 42.6 °F 43.0 °F 93% 29.69 in 1.5 mi Variable 4.6 mph - 0.00 in Rain Light Rain
1:05 PM 45.0 °F 43.5 °F 43.0 °F 93% 29.68 in 0.5 mi ENE 3.5 mph - 0.00 in Fog , Rain Light Rain
1:14 PM 44.1 °F 42.5 °F 43.0 °F 96% 29.68 in 0.5 mi NNW 3.5 mph - 0.00 in Fog , Rain Light Rain
1:17 PM 44.1 °F 42.5 °F 43.0 °F 96% 29.68 in 0.2 mi NNE 3.5 mph - 0.00 in Fog , Rain Light Rain
1:28 PM 44.1 °F - 43.0 °F 96% 29.67 in 0.2 mi Calm Calm - 0.01 in Fog , Rain Light Rain
1:53 PM 43.0 °F 41.3 °F 42.1 °F 97% 29.67 in 0.2 mi NNW 3.5 mph - 0.03 in Fog , Rain Light Rain
2:53 PM 44.1 °F 42.5 °F 42.1 °F 93% 29.63 in 0.8 mi NE 3.5 mph - 0.02 in Rain Light Rain
3:15 PM 44.1 °F - 42.1 °F 93% 29.63 in 0.2 mi Calm Calm - 0.00 in Fog , Rain Light Rain
3:22 PM 44.1 °F - 42.1 °F 93% 29.62 in 0.5 mi Calm Calm - 0.00 in Fog , Rain Light Rain
3:46 PM 44.1 °F - 43.0 °F 96% 29.61 in 2.0 mi Calm Calm - 0.00 in   Overcast
3:51 PM 44.6 °F 42.2 °F 42.8 °F 93% 29.60 in 10.0 mi SW 4.6 mph - 0.00 in   Overcast
3:53 PM 43.0 °F 40.3 °F 42.1 °F 97% 29.61 in 5.0 mi SW 4.6 mph - 0.00 in   Mostly Cloudy
3:58 PM 43.0 °F 39.5 °F 42.1 °F 97% 29.60 in 2.5 mi SSW 5.8 mph - N/A   Mostly Cloudy
4:02 PM 43.0 °F - 42.1 °F 97% 29.61 in 1.5 mi Calm Calm - N/A   Mostly Cloudy
4:18 PM 43.0 °F - 42.1 °F 97% 29.61 in 0.8 mi Calm Calm - 0.01 in   Mostly Cloudy
4:21 PM 43.0 °F 41.3 °F 42.1 °F 97% 29.61 in 0.5 mi SSW 3.5 mph - 0.01 in Fog , Rain Light Rain
4:26 PM 43.0 °F 39.5 °F 42.1 °F 97% 29.62 in 0.2 mi SW 5.8 mph - 0.01 in Fog , Rain Light Rain
4:36 PM 43.0 °F 39.5 °F 42.1 °F 97% 29.62 in 1.0 mi WSW 5.8 mph - 0.02 in Rain Light Rain
4:41 PM 43.0 °F 38.8 °F 42.1 °F 97% 29.62 in 3.0 mi WSW 6.9 mph - 0.03 in Rain Light Rain
4:53 PM 43.0 °F - 42.1 °F 97% 29.61 in 9.0 mi Calm Calm - 0.04 in Rain Light Rain
5:53 PM 44.1 °F 37.4 °F 41.0 °F 89% 29.65 in 10.0 mi WSW 13.8 mph - 0.03 in Rain Light Rain
6:53 PM 46.0 °F 39.9 °F 41.0 °F 83% 29.64 in 10.0 mi West 13.8 mph - 0.02 in   Overcast
7:53 PM 45.0 °F 37.1 °F 39.0 °F 80% 29.64 in 10.0 mi West 19.6 mph 27.6 mph 0.00 in   Partly Cloudy
8:53 PM 44.1 °F 37.7 °F 37.9 °F 79% 29.69 in 10.0 mi WNW 12.7 mph - N/A   Clear
9:53 PM 45.0 °F 38.2 °F 36.0 °F 71% 29.75 in 10.0 mi WNW 15.0 mph 26.5 mph N/A   Clear
10:53 PM 46.0 °F 39.9 °F 34.0 °F 63% 29.80 in 10.0 mi West 13.8 mph 26.5 mph N/A   Overcast
11:53 PM 45.0 °F 37.4 °F 34.0 °F 65% 29.83 in 10.0 mi West 18.4 mph 29.9 mph 0.00 in   Mostly Cloudy